TimeCDT,TemperatureF,Dew PointF,Humidity,Sea Level PressureIn,VisibilityMPH,Wind Direction,Wind SpeedMPH,Gust SpeedMPH,PrecipitationIn,Events,Conditions,WindDirDegrees,DateUTC
12:53 AM,57.9,54.0,87,30.04,10.0,Calm,Calm,-,N/A,,Clear,0,2012-10-15 05:53:00
1:53 AM,55.0,52.0,89,30.05,10.0,Calm,Calm,-,N/A,,Clear,0,2012-10-15 06:53:00
2:53 AM,54.0,51.1,90,30.04,10.0,Calm,Calm,-,N/A,,Clear,0,2012-10-15 07:53:00
3:53 AM,53.1,50.0,89,30.04,10.0,Calm,Calm,-,N/A,,Clear,0,2012-10-15 08:53:00
4:53 AM,53.1,50.0,89,30.04,10.0,Calm,Calm,-,N/A,,Clear,0,2012-10-15 09:53:00
5:53 AM,52.0,50.0,93,30.05,10.0,Calm,Calm,-,0.00,Rain,Light Rain,0,2012-10-15 10:53:00
6:01 AM,51.8,50.0,94,30.06,10.0,Calm,Calm,-,0.00,Rain,Light Rain,0,2012-10-15 11:01:00
6:53 AM,51.1,50.0,96,30.06,10.0,Calm,Calm,-,0.00,,Clear,0,2012-10-15 11:53:00
7:53 AM,52.0,50.0,93,30.07,9.0,WNW,3.5,-,N/A,,Clear,290,2012-10-15 12:53:00
8:53 AM,57.0,53.1,87,30.08,10.0,West,3.5,-,N/A,,Clear,280,2012-10-15 13:53:00
9:53 AM,63.0,55.0,75,30.09,10.0,WNW,4.6,-,N/A,,Clear,290,2012-10-15 14:53:00
10:53 AM,70.0,54.0,57,30.08,10.0,Calm,Calm,-,N/A,,Clear,0,2012-10-15 15:53:00
11:53 AM,73.9,50.0,43,30.07,10.0,WSW,4.6,-,N/A,,Clear,250,2012-10-15 16:53:00
12:53 PM,75.0,43.0,32,30.06,10.0,SSE,3.5,-,N/A,,Clear,150,2012-10-15 17:53:00
1:53 PM,78.1,39.9,25,30.03,10.0,Calm,Calm,-,N/A,,Clear,0,2012-10-15 18:53:00
2:53 PM,80.1,45.0,29,30.00,10.0,Variable,4.6,-,N/A,,Clear,0,2012-10-15 19:53:00
3:53 PM,79.0,46.0,31,29.98,10.0,Calm,Calm,-,N/A,,Clear,0,2012-10-15 20:53:00
4:53 PM,78.1,46.0,32,29.96,10.0,South,3.5,-,N/A,,Clear,170,2012-10-15 21:53:00
5:53 PM,75.9,50.0,40,29.95,10.0,South,4.6,-,N/A,,Clear,190,2012-10-15 22:53:00
6:53 PM,71.1,51.1,49,29.96,10.0,Calm,Calm,-,N/A,,Clear,0,2012-10-15 23:53:00
7:53 PM,64.0,53.1,67,29.98,10.0,ENE,4.6,-,N/A,,Clear,60,2012-10-16 00:53:00
8:53 PM,61.0,53.1,75,29.98,10.0,ENE,4.6,-,N/A,,Clear,60,2012-10-16 01:53:00
9:53 PM,60.1,53.1,78,29.99,10.0,Calm,Calm,-,N/A,,Clear,0,2012-10-16 02:53:00
10:53 PM,57.9,53.1,84,29.99,10.0,Calm,Calm,-,N/A,,Clear,0,2012-10-16 03:53:00
11:53 PM,57.0,53.1,87,29.99,10.0,Calm,Calm,-,N/A,,Clear,0,2012-10-16 04:53:00